Home > Weather > The Hague > Past weeks

Flag for Netherlands Weather for the Past 2 Weeks in The Hague, Netherlands

Now
46 °F

Partly sunny.


Feels Like: 41 °F
Forecast: 37 / 43 °F
Wind: 13 mph from West

Location: Rotterdam Zestienhoven Airport

Current Time: Feb 11, 2016 at 11:55:16 AM

Latest Report: Feb 11, 2016 at 11:25 AM


Visibility: N/A

Pressure: 29.65 "Hg

Humidity: 71%

Dew point: 37 °F

Location of The HagueLocation

Historic Weather in The Hague — Graph

°F

The Hague Temperature Yesterday

Maximum temperature yesterday: 45 °F (at 10:25 AM)
Minimum temperature yesterday: 37 °F (at 2:55 AM)
Average temperature yesterday: 42 °F

High & Low Weather Summary for the Past Weeks

 TemperatureHumidityPressure
High54 °F (Jan 27, 2:25 PM)100% (Jan 31, 3:25 PM)30.27 "Hg (Jan 31, 3:25 PM)
Low32 °F (Feb 11, 6:55 AM)57% (Jan 30, 9:55 PM)28.94 "Hg (Feb 9, 3:25 PM)
Average46 °F81%29.75 "Hg
* Reported Jan 27 10:25 AM — Feb 11 10:25 AM, The Hague, Weather by CustomWeather, © 2016

Note: Actual official high and low records may vary slightly from our data, if they occured in-between our weather recording intervals... More about our weather records

Advertising

The Hague Weather History for the Previous 24 Hours

 ConditionsComfort  
Time TempWeatherWind HumidityBarometerVisibility
10:25 AM
Thu, Feb 11
43 °FPassing clouds.8 mph81%29.62 "HgN/A
9:55 AM41 °FClear.10 mph81%29.62 "HgN/A
9:25 AM39 °FClear.7 mph87%29.62 "HgN/A
8:55 AM36 °FChilly.8 mph87%29.62 "HgN/A
8:25 AM34 °FClear.7 mph93%29.62 "HgN/A
7:55 AM34 °FChilly.7 mph87%29.62 "HgN/A
7:25 AM34 °FClear.7 mph87%29.59 "HgN/A
6:55 AM32 °FChilly.7 mph93%29.59 "HgN/A
6:25 AM37 °FChilly.7 mph81%29.59 "HgN/A
5:55 AM37 °FClear.8 mph81%29.59 "HgN/A
5:25 AM37 °FChilly.8 mph81%29.59 "HgN/A
4:55 AM37 °FChilly.7 mph81%29.59 "HgN/A
4:25 AM39 °FChilly.6 mph75%29.59 "HgN/A
3:55 AM39 °FPassing clouds.6 mph81%29.59 "HgN/A
2:55 AM37 °FChilly.8 mph87%29.56 "HgN/A
2:25 AM39 °FChilly.8 mph87%29.56 "HgN/A
1:55 AM39 °FPassing clouds.9 mph87%29.56 "HgN/A
1:25 AM41 °FPassing clouds.9 mph81%29.56 "HgN/A
12:55 AM39 °FPassing clouds.8 mph81%29.56 "HgN/A
12:25 AM39 °FClear.6 mph81%29.56 "HgN/A
11:55 PM
Wed, Feb 10
37 °FClear.3 mph87%29.53 "HgN/A
11:25 PM39 °FClear.6 mph81%29.53 "HgN/A
10:55 PM39 °FClear.6 mph81%29.53 "HgN/A
10:25 PM39 °FClear.7 mph75%29.53 "HgN/A
9:55 PM39 °FPassing clouds.9 mph75%29.53 "HgN/A
9:25 PM41 °FClear.10 mph70%29.50 "HgN/A
8:55 PM41 °FOvercast.13 mph76%29.50 "HgN/A
8:25 PM43 °FPassing clouds.13 mph81%29.50 "HgN/A
7:55 PM41 °FLight rain. Passing clouds.13 mph87%29.47 "HgN/A
7:25 PM43 °FPartly cloudy.15 mph81%29.47 "HgN/A
6:55 PM43 °FLight rain. Partly cloudy.12 mph81%29.45 "HgN/A
6:25 PM43 °FPassing clouds.13 mph81%29.45 "HgN/A
5:55 PM43 °FPassing clouds.10 mph81%29.42 "HgN/A
5:25 PM45 °FPartly sunny.13 mph76%29.42 "HgN/A
4:55 PM45 °FPartly sunny.13 mph81%29.39 "HgN/A
4:25 PM45 °FCloudy.12 mph81%29.39 "HgN/A
3:55 PM45 °FLight rain. Cloudy.13 mph81%29.36 "HgN/A
3:25 PM43 °FDrizzle. Broken clouds.8 mph87%29.36 "HgN/A
2:55 PM43 °FSprinkles. Broken clouds.10 mph87%29.33 "HgN/A
2:25 PM43 °FLight rain. Broken clouds.12 mph93%29.33 "Hg4 mi
1:55 PM43 °FLight rain. Mostly cloudy.16 mph87%29.33 "Hg4 mi
1:25 PM45 °FOvercast.15 mph81%29.30 "HgN/A
12:55 PM45 °FMore clouds than sun.17 mph76%29.30 "HgN/A
12:25 PM45 °FPartly sunny.15 mph81%29.30 "HgN/A
11:55 AM45 °FOvercast.15 mph81%29.30 "HgN/A
11:25 AM45 °FMore clouds than sun.15 mph81%29.27 "HgN/A
Weather by CustomWeather, © 2016

See weather overviewHow to use our weather pages